This is the latest recevied weather packets stored in our database for station/object W5DRO-13. If no packets are shown the sender has not sent any weather packets the latest 10 day(s).
| Time | Temp. | Humidity | Pressure | Rain* | Wind** | Luminosity | Snow |
|---|---|---|---|---|---|---|---|
| 1777915770 | 27.22° C | 45% | 1007.4 hPa | 0 mm | - | - | - |
| 1777915466 | 26.67° C | 48% | 1007.6 hPa | 0 mm | - | - | - |
| 1777915162 | 26.11° C | 47% | 1007.6 hPa | 0 mm | - | - | - |
| 1777914860 | 26.11° C | 46% | 1007.6 hPa | 0 mm | - | - | - |
| 1777914556 | 26.67° C | 47% | 1007.5 hPa | 0 mm | - | - | - |
| 1777914253 | 26.11° C | 47% | 1007.6 hPa | 0 mm | - | - | - |
| 1777913949 | 26.67° C | 46% | 1007.7 hPa | 0 mm | - | - | - |
| 1777913646 | 26.11° C | 47% | 1007.7 hPa | 0 mm | - | - | - |
| 1777913343 | 26.11° C | 47% | 1007.8 hPa | 0 mm | - | - | - |
| 1777913039 | 25.56° C | 48% | 1007.9 hPa | 0 mm | - | - | - |
| 1777912735 | 25.56° C | 47% | 1008 hPa | 0 mm | - | - | - |
| 1777912431 | 25.56° C | 46% | 1008 hPa | 0 mm | - | - | - |
| 1777912128 | 26.11° C | 47% | 1008 hPa | 0 mm | - | - | - |
| 1777911823 | 26.67° C | 46% | 1008.1 hPa | 0 mm | - | - | - |
| 1777911520 | 26.11° C | 48% | 1008.2 hPa | 0 mm | - | - | - |
| 1777911217 | 25.56° C | 45% | 1008.1 hPa | 0 mm | - | - | - |
| 1777910915 | 25.56° C | 48% | 1008.2 hPa | 0 mm | - | - | - |
| 1777910612 | 25.56° C | 48% | 1008.1 hPa | 0 mm | - | - | - |
| 1777910308 | 25° C | 48% | 1008.4 hPa | 0 mm | - | - | - |
| 1777910005 | 25° C | 47% | 1008.3 hPa | 0 mm | - | - | - |
| 1777909702 | 25° C | 48% | 1008.2 hPa | 0 mm | - | - | - |
| 1777909400 | 25° C | 47% | 1008.4 hPa | 0 mm | - | - | - |
| 1777909097 | 25° C | 47% | 1008.3 hPa | 0 mm | - | - | - |
| 1777908795 | 24.44° C | 49% | 1008.5 hPa | 0 mm | - | - | - |
| 1777908492 | 24.44° C | 49% | 1008.4 hPa | 0 mm | - | - | - |
* Rain latest hour (hover to see other rain measurements)
** Current wind speed in m/s (hover to see current wind gust speed)